Weather History for Hot Springs, VA

Change the Weather History Date:

Saturday, January 9, 2010

  Actual Average Record
Temperature  
Mean Temperature 11 °F -  
Max Temperature 17 °F 34 °F 55 °F (2006)
Min Temperature 5 °F 20 °F 3 °F (2011)
Degree Days  
Heating Degree Days 54    
Moisture  
Dew Point 8 °F    
Average Humidity 89    
Maximum Humidity 100    
Minimum Humidity 73    
Precipitation  
Precipitation 0.00 in - - ()
Sea Level Pressure  
Sea Level Pressure 30.01 in    
Wind  
Wind Speed 15 mph (NW)    
Max Wind Speed 20 mph    
Max Gust Speed 26 mph    
Visibility 9 miles    
Events Snow    
Averages and records for this station are not official NWS values.
T = Trace of Precipitation, MM = Missing Value Source: NWS Daily Summary

Daily Weather History Graph

Daily Weather History Graph

Search for Another Location

Airport:

Trip Planner

Search our weather history database for the weather conditions in past years. The results will help you decide how hot, cold, wet, or windy it might be!

Date:

Astronomy

Jan. 09, 2010 Rise Set
Actual Time 7:35 AM EST 5:17 PM EST
Civil Twilight 7:06 AM EST 5:46 PM EST
Nautical Twilight 6:33 AM EST 6:19 PM EST
Astronomical Twilight 6:01 AM EST 6:51 PM EST
Moon 2:42 AM EST (1/9) 12:43 PM EST (1/9)
Length of Visible Light 10h 40m
Length of Day
9h 42m
Waning Crescent, 27% of the Moon is Illuminated
Jan 9
Waning Crescent
Jan 15
New
Jan 23
First Quarter
Jan 30
Full
Feb 5
Last Quarter

Hourly Weather History & Observations

Time (EST) Temp. Windchill Dew Point Humidity Pressure Visibility Wind Dir Wind Speed Gust Speed Precip Events Conditions
12:01 AM 6.8 °F -11.3 °F 5.0 °F 92% 29.95 in 7.0 mi WNW 16.1 mph 21.9 mph N/A Snow Light Snow
12:19 AM 6.8 °F -12.4 °F 5.0 °F 92% 29.94 in 7.0 mi WNW 18.4 mph 26.5 mph N/A Snow Light Snow
12:40 AM 6.8 °F -11.3 °F 5.0 °F 92% 29.94 in 5.0 mi WNW 16.1 mph - N/A Snow Light Snow
12:59 AM 6.8 °F -11.8 °F 5.0 °F 92% 29.94 in 4.0 mi WNW 17.3 mph - N/A Snow Light Snow
1:19 AM 6.8 °F -11.8 °F 5.0 °F 92% 29.95 in 5.0 mi WNW 17.3 mph - N/A Snow Light Snow
1:40 AM 6.8 °F -12.4 °F 5.0 °F 92% 29.94 in 5.0 mi WNW 18.4 mph - N/A Snow Light Snow
1:59 AM 6.8 °F -12.9 °F 5.0 °F 92% 29.94 in 4.0 mi WNW 19.6 mph 24.2 mph N/A Snow Light Snow
2:19 AM 6.8 °F -11.8 °F 5.0 °F 92% 29.95 in 7.0 mi WNW 17.3 mph 21.9 mph N/A   Overcast
2:39 AM 6.8 °F -12.4 °F 5.0 °F 92% 29.96 in 10.0 mi WNW 18.4 mph - N/A   Scattered Clouds
2:59 AM 6.8 °F -11.3 °F 5.0 °F 92% 29.96 in 10.0 mi WNW 16.1 mph 23.0 mph N/A   Clear
3:19 AM 6.8 °F -10.7 °F 5.0 °F 92% 29.97 in 10.0 mi WNW 15.0 mph - N/A   Clear
3:39 AM 6.8 °F -10.7 °F 5.0 °F 92% 29.97 in 10.0 mi WNW 15.0 mph 20.7 mph N/A   Scattered Clouds
3:59 AM 6.8 °F -10.0 °F 3.2 °F 85% 29.97 in 10.0 mi WNW 13.8 mph - N/A   Mostly Cloudy
4:19 AM 6.8 °F -10.0 °F 3.2 °F 85% 29.98 in 10.0 mi WNW 13.8 mph - N/A   Mostly Cloudy
4:40 AM 5.0 °F -13.0 °F 3.2 °F 92% 29.97 in 10.0 mi WNW 15.0 mph - N/A Snow Light Snow
5:00 AM 6.8 °F -11.3 °F 5.0 °F 92% 29.97 in 10.0 mi WNW 16.1 mph - N/A   Scattered Clouds
5:19 AM 6.8 °F -10.7 °F 3.2 °F 85% 29.98 in 10.0 mi WNW 15.0 mph - N/A   Scattered Clouds
5:39 AM 6.8 °F -9.3 °F 5.0 °F 92% 29.99 in 10.0 mi NW 12.7 mph - N/A   Clear
5:59 AM 6.8 °F -11.3 °F 6.8 °F 100% 29.99 in 10.0 mi NW 16.1 mph - N/A   Scattered Clouds
6:19 AM 6.8 °F -10.0 °F 6.8 °F 100% 30.00 in 10.0 mi NW 13.8 mph - N/A   Scattered Clouds
6:41 AM 6.8 °F -10.7 °F 6.8 °F 100% 30.00 in 10.0 mi NW 15.0 mph - N/A   Scattered Clouds
6:59 AM 8.6 °F -7.0 °F 6.8 °F 92% 30.01 in 10.0 mi NW 12.7 mph - N/A   Mostly Cloudy
7:20 AM 8.6 °F -9.5 °F 6.8 °F 92% 30.02 in 10.0 mi NW 17.3 mph 20.7 mph N/A   Scattered Clouds
7:41 AM 8.6 °F -7.7 °F 6.8 °F 92% 30.01 in 10.0 mi NW 13.8 mph - N/A   Mostly Cloudy
7:59 AM 8.6 °F -7.7 °F 6.8 °F 92% 30.02 in 10.0 mi NW 13.8 mph 19.6 mph N/A   Scattered Clouds
8:19 AM 8.6 °F -6.3 °F 6.8 °F 92% 30.02 in 10.0 mi WNW 11.5 mph - N/A   Mostly Cloudy
8:41 AM 8.6 °F -7.0 °F 6.8 °F 92% 30.03 in 10.0 mi WNW 12.7 mph - N/A   Overcast
8:59 AM 8.6 °F -7.0 °F 6.8 °F 92% 30.03 in 10.0 mi WNW 12.7 mph - N/A   Overcast
9:19 AM 8.6 °F -7.0 °F 8.6 °F 100% 30.04 in 7.0 mi WNW 12.7 mph - N/A   Overcast
9:39 AM 10.4 °F -4.1 °F 8.6 °F 92% 30.05 in 10.0 mi West 11.5 mph - N/A   Mostly Cloudy
9:59 AM 10.4 °F -3.3 °F 8.6 °F 92% - 10.0 mi WNW 10.4 mph - N/A   Scattered Clouds
10:20 AM 10.4 °F -5.4 °F 10.4 °F 100% 30.07 in 10.0 mi West 13.8 mph - N/A   Mostly Cloudy
10:39 AM 10.4 °F -4.1 °F 10.4 °F 100% 30.07 in 10.0 mi NW 11.5 mph 17.3 mph N/A   Overcast
10:59 AM 12.2 °F -4.3 °F 10.4 °F 92% 30.07 in 10.0 mi NW 16.1 mph - N/A   Overcast
11:19 AM 14.0 °F -1.4 °F 12.2 °F 93% 30.07 in 10.0 mi NW 15.0 mph - N/A   Mostly Cloudy
11:39 AM 15.8 °F 0.3 °F 12.2 °F 86% 30.06 in 10.0 mi WNW 16.1 mph - N/A   Overcast
11:59 AM 15.8 °F -0.2 °F 12.2 °F 86% 30.05 in 10.0 mi NW 17.3 mph 23.0 mph N/A   Overcast
12:20 PM 15.8 °F 0.3 °F 10.4 °F 79% 30.05 in 10.0 mi NW 16.1 mph 21.9 mph N/A   Overcast
12:41 PM 17.6 °F 3.2 °F 10.4 °F 73% 30.04 in 10.0 mi WNW 15.0 mph 21.9 mph N/A   Scattered Clouds
12:59 PM 17.6 °F 2.7 °F 10.4 °F 73% 30.03 in 10.0 mi WNW 16.1 mph 21.9 mph N/A   Scattered Clouds
1:19 PM 17.6 °F 2.7 °F 10.4 °F 73% 30.03 in 10.0 mi WNW 16.1 mph 20.7 mph N/A   Scattered Clouds
1:39 PM 17.6 °F 5.0 °F 10.4 °F 73% 30.03 in 10.0 mi NW 11.5 mph 24.2 mph N/A   Scattered Clouds
2:01 PM 17.6 °F 3.2 °F 10.4 °F 73% 30.02 in 10.0 mi NNW 15.0 mph 19.6 mph N/A   Mostly Cloudy
2:19 PM 15.8 °F 0.9 °F 10.4 °F 79% 30.02 in 10.0 mi NW 15.0 mph 20.7 mph N/A   Overcast
2:39 PM 15.8 °F 1.4 °F 10.4 °F 79% 30.02 in 10.0 mi NW 13.8 mph 19.6 mph N/A   Overcast
2:59 PM 15.8 °F 0.9 °F 10.4 °F 79% 30.02 in 10.0 mi WNW 15.0 mph 20.7 mph N/A   Mostly Cloudy
3:19 PM 15.8 °F 0.9 °F 10.4 °F 79% 30.02 in 10.0 mi NW 15.0 mph 20.7 mph N/A Snow Light Snow
3:39 PM 15.8 °F 2.1 °F 10.4 °F 79% 30.03 in 10.0 mi NNW 12.7 mph 19.6 mph N/A Snow Light Snow
4:00 PM 14.0 °F -2.5 °F 10.4 °F 86% 30.04 in 10.0 mi NW 17.3 mph 20.7 mph N/A Snow Light Snow
4:19 PM 14.0 °F -1.4 °F 10.4 °F 86% 30.04 in 10.0 mi NNW 15.0 mph 21.9 mph N/A Snow Light Snow
4:41 PM 12.2 °F -1.8 °F 10.4 °F 92% 30.05 in 10.0 mi NW 11.5 mph - N/A Snow Light Snow
4:59 PM 12.2 °F -5.3 °F 10.4 °F 92% 30.05 in 10.0 mi NW 18.4 mph 21.9 mph N/A Snow Light Snow
5:19 PM 12.2 °F -3.1 °F 10.4 °F 92% 30.06 in 10.0 mi WNW 13.8 mph - N/A Snow Light Snow
5:39 PM 12.2 °F -2.5 °F 8.6 °F 85% 30.06 in 10.0 mi WNW 12.7 mph - N/A Snow Light Snow
5:59 PM 12.2 °F -3.1 °F 10.4 °F 92% 30.07 in 10.0 mi NW 13.8 mph - N/A Snow Light Snow
6:19 PM 12.2 °F -2.5 °F 10.4 °F 92% 30.07 in 10.0 mi NW 12.7 mph - N/A Snow Light Snow
6:39 PM 12.2 °F -4.3 °F 10.4 °F 92% 30.07 in 10.0 mi WNW 16.1 mph 21.9 mph N/A Snow Light Snow
6:59 PM 12.2 °F -2.5 °F 10.4 °F 92% 30.08 in 10.0 mi WNW 12.7 mph 20.7 mph N/A   Overcast
7:19 PM 12.2 °F -3.1 °F 10.4 °F 92% 30.08 in 10.0 mi NW 13.8 mph 19.6 mph N/A   Overcast
7:41 PM 10.4 °F -6.0 °F 8.6 °F 92% 30.09 in 10.0 mi NW 15.0 mph 23.0 mph N/A   Mostly Cloudy
7:59 PM 10.4 °F -7.2 °F 8.6 °F 92% 30.09 in 10.0 mi NW 17.3 mph 21.9 mph N/A   Scattered Clouds
8:19 PM 10.4 °F -7.2 °F 8.6 °F 92% 30.09 in 10.0 mi WNW 17.3 mph 21.9 mph N/A   Clear
8:39 PM 10.4 °F -8.2 °F 8.6 °F 92% 30.10 in 10.0 mi WNW 19.6 mph - N/A   Clear
8:59 PM 8.6 °F -8.9 °F 6.8 °F 92% 30.10 in 10.0 mi WNW 16.1 mph - N/A   Clear
9:19 PM 8.6 °F -7.7 °F 6.8 °F 92% 30.10 in 10.0 mi NW 13.8 mph - N/A   Clear
9:40 PM 8.6 °F -8.3 °F 6.8 °F 92% 30.11 in 10.0 mi WNW 15.0 mph - N/A   Clear
9:59 PM 8.6 °F -7.7 °F 6.8 °F 92% 30.11 in 10.0 mi NW 13.8 mph - N/A   Clear
10:20 PM 8.6 °F -7.7 °F 6.8 °F 92% 30.12 in 10.0 mi NW 13.8 mph - N/A   Clear
10:40 PM 8.6 °F -8.9 °F 6.8 °F 92% 30.11 in 10.0 mi NW 16.1 mph 20.7 mph N/A   Clear
10:59 PM 8.6 °F -8.9 °F 6.8 °F 92% 30.11 in 10.0 mi WNW 16.1 mph - N/A   Unknown
11:21 PM 8.6 °F -8.3 °F 6.8 °F 92% 30.12 in 10.0 mi NW 15.0 mph - N/A   Clear
11:39 PM 8.6 °F -7.7 °F 6.8 °F 92% 30.12 in 10.0 mi WNW 13.8 mph 19.6 mph N/A   Clear